DELTA 1 DEB, 19306

Orbit data source: Space-Track

DELTA 1 DEB, 19306 is space debris in SSO originally from a launch on Thu, 29 Jul 1976 UTC launched from the Air Force Western Test Range (AFWTR). Debris objects in space refer to the collection of defunct objects orbiting the Earth. Examples of debris include non-operational satellites, rocket bodies, and fragments generated from explosions, collisions, or faulty payload assembly.

Loading next visibility...
Identifier
19306, 1976-077FJ
Orbit
SSO
Country
Flag of USUS
Related business
Manufacturer
Unknown
Mission
Spacecraft
Bus & Motor
Unknown
Mass
Unknown
Launch date (UTC)
1976-07-29 (50 years ago)
Launch vehicle
Unknown
Launch site
Air Force Western Test Range (AFWTR)
Object type
Payload
Rocket body
Debris
Shape & HBR
Unknown shape, 0.1 m
Radar Cross Section
Medium (>0.1 m² and <1 m²)

Expand to show TLE details & history
Last TLE update: 1 day ago

TLE from 1 day ago
0 DELTA 1 DEB
1 19306U 76077FJ  26255.23218639  .00000045  00000-0  87756-3 0  9995
2 19306 102.2276 357.1034 0144270 257.9271 129.1131 12.15465383685820
Epoch: 2026-09-12T05:34Z
TLE epoch observation values (Epoch: 2026-09-12T05:34:20.904Z)
Latitude
27.64922°
Longitude
-84.21549°
Altitude
1,689.118 km
Speed
7 km/s
True Right ascension
23h 22m 27s
True Declination
27° 31' 28"
Sunlit
Object was in full shadow at epoch
Visualization orbit readout
Latitude
Unknown
Longitude
Unknown
Altitude
Unknown
Speed
Unknown
Apparent Right ascension
Unknown
Apparent Declination
Unknown
Sunlit
N/A
Visualization observer readout
Local Sidereal Time
02:27:43
Azimuth
Unknown
Elevation
Unknown
Doppler factor
Unknown
Orbital elements
Apogee altitude
1,725.218 km
Perigee altitude
1,494.729 km
Semi-major axis
7,988.11 km
Eccentricity
0.01443
Inclination
102.2276°
RAAN
357.1034°
Arg. of periapsis
257.9271°
True anomaly
130.38129°
Mean anomaly
129.1131°
Eccentric anomaly
129.74864°
Mean motion
3.04002 °/min
Orbital period
118.42 mins
BSTAR
0.00087756
Loading maneuver chart data...
Computing Atmospheric mass density...
Loading historical data...
Loading historical data...
Loading historical data...
Loading historical data...
Loading historical data...
Loading historical data...
Loading historical data...

Documentation

Showing up to 5 results
|